This is the latest recevied weather packets stored in our database for station/object OE3PDB-3. If no packets are shown the sender has not sent any weather packets the latest 10 day(s).
| Time | Temp. | Humidity | Pressure | Rain* | Wind** | Luminosity | Snow |
|---|---|---|---|---|---|---|---|
| 1777768248 | 11.67° C | 56% | 1017.4 hPa | 0 mm | - | - | - |
| 1777767648 | 11.11° C | 56% | 1017.6 hPa | 0 mm | - | - | - |
| 1777767048 | 11.67° C | 55% | 1017.6 hPa | 0 mm | - | - | - |
| 1777765847 | 11.67° C | 54% | 1017.9 hPa | 0 mm | - | - | - |
| 1777765247 | 12.22° C | 54% | 1018 hPa | 0 mm | - | - | - |
| 1777764647 | 12.22° C | 52% | 1018.1 hPa | 0 mm | - | - | - |
| 1777764047 | 12.78° C | 51% | 1018.2 hPa | 0 mm | - | - | - |
| 1777763447 | 12.78° C | 51% | 1018.4 hPa | 0 mm | - | - | - |
| 1777762847 | 12.78° C | 51% | 1018.5 hPa | 0 mm | - | - | - |
| 1777762247 | 12.78° C | 51% | 1018.4 hPa | 0 mm | - | - | - |
| 1777761647 | 13.33° C | 50% | 1018.5 hPa | 0 mm | - | - | - |
| 1777761047 | 13.33° C | 51% | 1018.5 hPa | 0 mm | - | - | - |
| 1777760447 | 12.78° C | 51% | 1018.7 hPa | 0 mm | - | - | - |
| 1777759847 | 12.78° C | 51% | 1018.6 hPa | 0 mm | - | - | - |
| 1777759247 | 12.78° C | 51% | 1018.6 hPa | 0 mm | - | - | - |
| 1777758647 | 12.78° C | 51% | 1018.7 hPa | 0 mm | - | - | - |
| 1777758047 | 12.78° C | 51% | 1018.7 hPa | 0 mm | - | - | - |
| 1777757447 | 12.78° C | 51% | 1018.7 hPa | 0 mm | - | - | - |
| 1777756847 | 12.78° C | 51% | 1018.9 hPa | 0 mm | - | - | - |
| 1777756247 | 12.78° C | 52% | 1018.9 hPa | 0 mm | - | - | - |
| 1777755647 | 12.78° C | 51% | 1019 hPa | 0 mm | - | - | - |
| 1777755047 | 12.78° C | 50% | 1019 hPa | 0 mm | - | - | - |
| 1777754447 | 13.33° C | 49% | 1019.1 hPa | 0 mm | - | - | - |
| 1777753847 | 13.33° C | 48% | 1019.1 hPa | 0 mm | - | - | - |
| 1777753247 | 13.89° C | 47% | 1019.2 hPa | 0 mm | - | - | - |
* Rain latest hour (hover to see other rain measurements)
** Current wind speed in m/s (hover to see current wind gust speed)